Current weather by "City, St" or "zip code"  
 
Advertise Here

Current Conditions: Greater Portsmouth Regional Airport, OH

Partly Cloudy


59.0 F

Last Updated on May 12 2021, 12:59 pm EDT
Humidity: 39%
Wind Speed: N 8.1 mph
Barometer 30.36 in
Dewpoint: 33.8 F
Visibility: 10.00 mi
Precip: --
Heat Index: NA
Wind Chill: 58 F
Current conditions at:

Greater Portsmouth Regional Airport, OH (KPMH)

Lat: 38.84047 Lon: 82.84731

Local Radar Image active severe weather and emergency alerts image image weather storm and storm spotter reports image weather observation monitoring service image
Local
Radar
Active
Alerts
Storm Reports Obs
Monitoring

Sign-up For Email & Text Message Weather Alert Notification Services


Advertise Here

Observation History for Greater Portsmouth Regional Airport, OH


Time Wind
(mph)
Vis
(mi)
Weather Precip (in) Temperature (F) Relative
Humidity
Wind
Chill
(F)
Heat
Index
(F)
Pressure
Air Dwpt altimeter
(in)
sea level
(mb)
Rmks
12:59 pm EDT N 8.1 10.00 Partly Cloudy -- 59.0 33.8 39% 58 NA 30.36 M
11:59 am EDT NE 9.2 10.00 Partly Cloudy -- 57.0 33.8 41% 55 NA 30.37 M
9:59 am EDT NE 6.9 10.00 Fair -- 54.0 32.0 44% 52 NA 30.40 M
8:59 am EDT N 5.8 10.00 Fair -- 48.0 33.8 58% 45 NA 30.39 M
7:59 am EDT N 0.0 10.00 Fair -- 43.0 37.4 81% NA NA 30.39 M
6:59 am EDT N 3.5 10.00 Fair -- 39.0 39.2 100% NA NA 30.37 M
5:59 am EDT N 3.5 10.00 Fair -- 41.0 39.2 93% NA NA 30.36 M
4:59 am EDT N 0.0 10.00 Fair -- 41.0 35.6 81% NA NA 30.35 M
3:59 am EDT N 0.0 10.00 Fair -- 45.0 33.8 66% NA NA 30.33 M
2:59 am EDT N 0.0 10.00 Fair -- 45.0 33.8 66% NA NA 30.33 M
1:59 am EDT N 0.0 10.00 Fair -- 46.0 33.8 62% NA NA 30.33 M
12:59 am EDT N 0.0 10.00 Fair -- 46.0 33.8 62% NA NA 30.34 M
11:59 pm EDT NW 3.5 10.00 Fair -- 48.0 33.8 58% NA NA 30.33 M
10:59 pm EDT N 6.9 10.00 Fair -- 50.0 32.0 50% 47 NA 30.33 M
9:59 pm EDT N 0.0 10.00 Fair -- 52.0 33.8 50% NA NA 30.31 M
8:59 pm EDT N 6.9 10.00 Fair -- 52.0 32.0 47% 50 NA 30.28 M
7:59 pm EDT N 6.9 10.00 Fair -- 55.0 30.2 38% 53 NA 30.26 M
6:59 pm EDT N 10.4 10.00 Partly Cloudy -- 57.0 30.2 36% 55 NA 30.23 M
5:59 pm EDT NW 10.4 10.00 Partly Cloudy -- 59.0 32.0 36% 57 NA 30.24 M
4:59 pm EDT N 11.5 10.00 Fair -- 61.0 32.0 34% 59 NA 30.21 M
3:59 pm EDT N 9.2 10.00 Partly Cloudy -- 59.0 32.0 36% 57 NA 30.22 M
1:59 pm EDT NW 8.1 10.00 Mostly Cloudy -- 59.0 35.6 42% 58 NA 30.25 M

Regional Weather Observation


Chillicothe Ross County Airport, OH (KRZT)

Partly Cloudy
57.0 F

James A Rhodes Airport, OH (KI43)

Partly Cloudy
59.0 F

Fayette County Airport, OH (KI23)

Fair
57.0 F

Ashland Regional Airport, KY (KDWU)

Fair
61.0 F

OHIO U/ATHEN-ALBANY, OH (KUNI)

Fair
60.0 F

Wilmington, Airborne Airpark Airport, OH (KILN)

A Few Clouds
57.0 F
Advertise Here

Advertise Here